Terminal Aerodrome Forecast
Issued by NWS Twin Cities, MN

Home | Current Version | Previous Version | Graphics & Text | Print | Product List | Glossary On
Versions: 1 2 3 4 5 6 7 8 9 10 11 12 13 14 15 16 17
000
FTUS43 KMPX 020520
TAFSTC
TAF
KSTC 020520Z 0206/0306 21004KT P6SM SKC
     FM021300 29006KT P6SM SKC
     FM021700 32014G23KT P6SM SCT060
     FM030100 31005KT P6SM SKC=

USA.gov is the U.S. government's official web portal to all federal, state and local government web resources and services.